Regional Weather Roundup
Issued by NWS

Home | Current Version | Previous Version | Text Only | Print | Product List | Glossary On
Versions: 1 2 3 4 5 6 7 8 9 10 11 12 13 14 15 16 17 18 19 20 21 22 23 24 25 26 27 28 29 30 31 32 33 34 35 36 37 38 39 40 41 42 43 44 45 46 47 48 49 50
000
ASUS44 KFWD 251403
RWRTX
NORTH TEXAS HOURLY WEATHER ROUNDUP
NATIONAL WEATHER SERVICE FORT WORTH TX
900 AM CDT SAT JUN 25 2016

NOTE: "FAIR" INDICATES FEW OR NO CLOUDS BELOW 12,000 FEET WITH NO
SIGNIFICANT WEATHER AND/OR OBSTRUCTIONS TO VISIBILITY.

TXZ118-119-251500-
DALLAS/FORT WORTH METROPLEX

CITY           SKY/WX    TMP DP  RH WIND       PRES   REMARKS
DFW AIRPORT    MOSUNNY   84  72  67 S18       30.04R
DALLAS LOVE    MOSUNNY   83  74  74 S15       30.06R
FTW MEACHAM    MOSUNNY   84  73  69 S15       30.04S HX  90
DAL-EXECUTIVE  MOSUNNY   81  73  76 S9        30.06R
FTW-ALLIANCE   MOSUNNY   83  72  69 S13G21    30.04S
FTW-NAS-JRB    MOSUNNY   83  72  69 S21       30.05R
FTW-SPINKS     PTSUNNY   82  73  74 S16       30.07R
ARLINGTON      MOSUNNY   85  73  67 S13       30.05S HX  91
GRAND PRAIRIE  SUNNY     81  72  74 S10G16    30.07R
ADDISON        PTSUNNY   81  72  74 S13G18    30.07R
MESQUITE       PTSUNNY   81  75  83 S10       30.07R
LANCASTER      PTSUNNY   83  74  76 S10       30.08R
$$

TXZ091>094-102>105-117-120-121-131>134-251500-
NORTH CENTRAL TEXAS

CITY           SKY/WX    TMP DP  RH WIND       PRES   REMARKS
SHRMAN/DENISON SUNNY     84  72  67 S16       30.07R
BOWIE          MOSUNNY   80  73  78 S7        30.06R
BRIDGEPORT     SUNNY     82  72  71 S14G22    30.06S
DECATUR        SUNNY     80  70  71 S15       30.06R
DENTON         MOSUNNY   82  72  71 S15       30.05R
MCKINNEY       PTSUNNY   81  73  76 S17       30.06R
GREENVILLE     MOSUNNY   82  73  74 S10       30.08R
ROCKWALL       PTSUNNY   80  75  83 S16G29    30.06S
TERRELL        PTSUNNY   82  74  76 S12G18    30.08R
WAXAHACHIE     PTSUNNY   80  76  86 S14       30.08S
CLEBURNE       PTSUNNY   81  77  89 S13       30.08S
GRANBURY       PTSUNNY   83  72  70 SE13      30.07R
$$

TXZ083>090-098>101-113>116-127>130-139>142-154-155-251500-
WESTERN NORTH TEXAS

CITY           SKY/WX    TMP DP  RH WIND       PRES   REMARKS
WICHITA FALLS  SUNNY     80  70  71 S16       30.02R
WF-KICKAPOO    SUNNY     83  70  64 S10G25    30.04R
VERNON         SUNNY     82  66  59 S13       30.03R
ABILENE        CLOUDY    75  69  81 S13       30.07R
ABILENE-DYESS  PTSUNNY   76  69  79 S17       30.04R
BRECKENRIDGE   MOSUNNY   83  68  60 S17G24    30.05R HAZE
MINERAL WELLS  SUNNY     80  72  76 S13G20    30.04R
STEPHENVILLE   SUNNY     80  71  74 S14G22    30.10R
COMANCHE       PTSUNNY   80  72  77 S15       30.08R
BROWNWOOD      MOSUNNY   81  70  69 S13G18    30.07S
COLEMAN        CLOUDY    78  67  69 S13G18    30.08R
$$

TXZ143>147-156>162-174-175-251500-
CENTRAL TEXAS

CITY           SKY/WX    TMP DP  RH WIND       PRES   REMARKS
WACO           PTSUNNY   81  74  79 S12       30.07R
WACO-TSTC      CLOUDY    81  75  83 S9        30.08R
WACO-MCGREGOR  CLOUDY    80  75  84 SE7       30.08R
HILLSBORO      CLOUDY    79  73  83 S15       30.08S
CORSICANA      PTSUNNY   83  75  77 S8        30.09R HX  90
MEXIA          PTSUNNY   81  77  86 MISG      30.08R
CAMERON        PTSUNNY   83  76  81 S10       30.07S HX  91
TEMPLE         CLOUDY    80  75  84 S14G20    30.07S
KILLEEN        PTSUNNY   81  74  78 S16       30.07R
KILLEEN-SKYLRK MOSUNNY   80  74  81 S14       30.07R
FORT HOOD      PTSUNNY   80  74  80 S14       30.05S
GATESVILLE     MOSUNNY   82  73  74 S9        30.09S
HAMILTON       PTSUNNY   82  71  70 S17       30.09R
LAMPASAS       PTSUNNY   82  74  78 S9G16     30.07S
$$

TXZ095>097-106>112-122>126-135>138-148>153-164>167-251500-
EAST TEXAS

CITY           SKY/WX    TMP DP  RH WIND       PRES   REMARKS
PARIS          SUNNY     82  68  61 SW13G18   30.08S
SULPHUR SPRNGS SUNNY     82  74  75 SW14      30.09S
MOUNT PLEASANT SUNNY     82  74  76 SW7       30.10S
GILMER         MOSUNNY   80  74  84 S7        30.10R
MINEOLA        SUNNY     82  75  78 S9        30.10R
TYLER          SUNNY     83  74  74 SW15      30.09R
LONGVIEW       MOSUNNY   82  76  81 SW8       30.08R
MARSHALL       CLOUDY    77  73  85 SW3       30.12R
ATHENS         PTSUNNY   81  77  89 S7        30.07S
PALESTINE      MOSUNNY   82  76  83 S7        30.10R
JACKSONVILLE   MOSUNNY   81  76  84 S7        30.13R
HENDERSON      MOSUNNY   81  75  81 SW3       30.11R
CENTER         PTSUNNY   84  78  83 SW7       30.10R HX  94
NACOGDOCHES    SUNNY     82  75  78 SW8       30.10R
LUFKIN         SUNNY     82  76  81 VRB3      30.10R
$$

SUPPLEMENTAL OBSERVATIONS (CENTRAL)

CITY           SKY/WX    TMP DP  RH WIND       PRES   REMARKS
$$

SUPPLEMENTAL OBSERVATIONS (WEST)

CITY           SKY/WX    TMP DP  RH WIND       PRES   REMARKS
$$

SUPPLEMENTAL OBSERVATIONS (EAST)

CITY           SKY/WX    TMP DP  RH WIND       PRES   REMARKS
$$

SUPPLEMENTAL OBSERVATIONS ARE A COLLECTION OF AUTOMATED INSTRUMENTS
THAT ARE MAINTAINED BY A VARIETY OF FEDERAL AND STATE AGENCIES.
CERTAIN ELEMENTS...SUCH AS HUMIDITY VALUES AND SUSTAINED WIND
SPEEDS...MAY BE APPROXIMATED.





USA.gov is the U.S. government's official web portal to all federal, state and local government web resources and services.